Wind_Speed
11 13 14 14 14 14 14 15 15 16 16 16 16 16 15 14 12 10 9 7 5 4 3 5 6 8 10 12 15 16 18 19 20 21 22 23 24 24 25 25 26 27 28
12 13 14 14 14 14 14 14 14 15 15 15 15 15 15 14 12 11 9 8 6 4 3 4 5 7 9 10 12 14 16 18 19 20 21 22 22 24 24 24 24 25 26
12 13 13 14 14 14 13 13 13 14 14 14 14 15 14 13 13 11 9 8 6 5 4 3 4 6 8 9 10 12 14 16 18 19 20 21 22 23 23 24 24 24 25
13 13 13 14 14 14 13 13 13 13 13 13 13 14 14 13 12 12 10 8 7 6 5 4 3 4 6 8 9 11 13 15 16 18 19 20 20 22 23 24 24 23 24
14 14 14 14 14 14 13 12 12 12 12 12 13 13 13 12 12 11 11 9 8 7 5 4 4 4 4 6 8 10 12 14 15 16 17 19 19 20 22 23 24 23 24
15 15 14 14 14 14 13 13 12 12 12 12 12 12 12 12 11 11 10 10 9 7 6 5 5 5 5 6 7 9 11 12 14 16 17 18 19 20 21 22 23 24 24
17 17 16 15 15 14 14 13 13 13 12 12 12 12 12 11 11 11 10 9 9 8 8 7 6 5 6 7 8 10 11 12 14 15 17 18 19 20 21 22 24 24 24
18 18 18 17 17 16 15 15 14 14 13 13 12 12 12 12 11 11 10 10 9 9 8 8 7 7 7 7 8 10 11 12 14 15 17 18 19 20 20 21 22 24 24
20 20 20 19 19 18 17 16 15 15 15 14 14 13 13 13 12 11 11 11 10 10 9 9 8 8 8 8 8 9 11 12 13 15 16 17 19 20 21 21 22 23 25
22 22 22 22 21 20 19 18 18 17 16 16 15 15 14 14 14 13 12 12 12 11 11 11 10 10 9 9 9 9 10 12 13 14 15 17 18 20 21 22 23 23 24
25 24 24 24 24 23 22 21 20 20 19 18 17 17 16 16 15 15 14 14 13 13 13 12 12 12 11 11 11 11 11 12 13 14 15 16 18 19 21 22 23 23 24
27 27 26 26 26 25 25 24 23 22 21 20 20 19 19 18 17 17 17 16 15 15 15 14 14 14 13 13 12 12 12 13 13 14 15 16 17 19 20 21 23 24 24
29 29 28 28 28 28 27 26 26 25 24 23 22 21 21 20 19 19 18 18 18 17 17 16 16 15 15 14 14 14 14 15 15 15 16 17 18 19 20 21 22 24 25
32 31 31 31 30 30 29 29 28 28 27 26 25 24 23 22 22 21 20 20 19 19 19 18 17 17 16 16 16 16 16 16 17 17 18 18 19 20 21 22 23 24 25
34 34 33 33 32 32 32 31 30 30 29 28 27 26 25 24 24 23 22 22 21 21 20 20 20 19 18 18 18 18 18 19 19 19 20 20 21 21 22 23 24 25 26
36 36 36 35 35 34 34 33 33 32 32 31 30 29 28 27 26 25 24 24 23 23 22 22 21 21 21 21 21 21 21 21 21 21 22 22 23 23 24 24 25 26 27
39 38 38 38 37 37 36 36 35 34 34 33 32 32 31 30 29 28 27 26 26 25 25 24 24 23 23 23 23 23 23 23 23 23 23 23 24 24 25 26 27 27 28
42 41 41 40 40 39 39 38 38 37 36 35 35 34 33 32 31 30 29 29 28 27 27 26 26 26 25 25 25 25 25 25 25 25 25 26 26 26 27 27 28 28 29
45 44 43 43 42 42 41 40 40 40 39 38 37 36 36 35 34 33 32 31 30 29 28 28 28 28 27 27 27 27 27 27 27 28 28 28 28 28 29 29 29 30 30
48 47 46 45 45 44 44 43 42 42 41 40 39 39 38 37 36 35 34 33 32 31 30 30 29 29 29 29 28 29 29 29 29 30 30 30 30 31 31 31 32 32 32
49 48 48 47 46 46 45 45 44 43 43 42 41 41 40 39 38 37 36 35 34 33 32 32 31 31 31 30 30 30 30 30 31 31 32 32 32 32 33 33 33 34 34
49 48 48 48 47 47 46 46 45 45 44 44 43 43 42 41 40 39 38 36 35 35 34 34 33 33 33 33 32 32 33 33 33 33 33 33 33 34 34 34 35 35 36
49 49 48 48 48 48 47 47 46 46 46 45 45 44 43 43 42 40 40 39 38 37 36 35 35 34 34 35 35 35 34 34 34 34 34 34 35 35 35 36 36 36 37
50 50 49 49 49 49 48 48 47 47 46 46 45 45 44 44 43 42 41 40 40 39 38 37 37 36 36 35 35 35 35 36 35 35 35 35 35 36 36 37 37 37 38
49 49 49 49 48 49 48 48 47 47 46 46 45 45 45 44 44 43 42 41 40 39 39 38 38 37 37 37 37 37 36 36 36 36 36 36 37 37 37 37 37 38 38
47 47 47 47 47 47 48 47 47 46 45 45 45 45 45 44 43 43 42 41 40 40 40 39 39 38 38 38 38 38 37 37 37 37 37 37 37 37 37 38 38 38 38
Wind_Direction
326 332 336 338 339 341 344 348 351 354 357 360 2 4 4 4 1 359 360 355 346 322 282 253 240 232 227 226 224 223 222 224 226 226 227 228 228 230 233 235 236 236 236
319 326 332 336 339 340 341 344 348 351 354 357 1 3 5 6 6 4 2 3 356 340 309 271 250 237 229 227 225 223 222 223 225 227 228 229 231 231 232 234 236 235 236
310 317 325 331 335 338 338 339 343 347 351 354 358 1 3 5 6 6 4 3 1 353 334 301 269 249 237 229 223 222 221 222 224 226 228 230 232 233 236 237 238 237 239
301 308 316 323 328 331 334 335 338 343 347 350 354 357 360 1 3 4 4 1 358 354 346 327 294 260 240 233 230 230 227 225 225 227 230 232 234 236 238 239 238 238 240
294 300 307 314 320 324 326 329 332 336 340 345 349 351 354 356 357 360 1 1 359 356 349 338 316 285 256 242 237 235 233 230 230 231 234 236 238 238 240 240 239 239 241
289 292 299 304 309 314 318 320 324 327 331 335 341 345 348 350 352 355 356 356 357 355 352 340 322 305 275 259 249 245 241 237 236 236 237 238 238 240 241 241 240 242 243
288 289 291 295 298 302 306 310 313 317 321 325 329 334 338 342 345 347 346 347 348 347 342 338 329 312 293 274 263 256 251 248 246 244 242 241 241 243 243 241 240 243 245
285 286 287 289 291 294 297 300 303 307 311 314 317 320 324 328 332 334 335 335 334 334 333 330 327 316 303 286 275 266 260 256 254 252 249 244 244 246 247 246 245 244 246
281 282 283 284 286 288 290 293 295 298 302 305 308 310 313 315 318 322 323 324 324 322 319 316 316 314 307 296 283 275 268 262 259 257 254 250 249 248 247 247 247 247 248
279 279 280 281 281 283 284 287 289 291 294 298 299 302 304 306 307 309 312 314 316 315 311 306 305 304 299 297 291 283 276 270 266 262 259 256 254 254 251 250 250 251 250
277 277 278 278 278 279 280 281 283 285 288 291 292 294 297 299 299 300 302 303 305 307 306 302 299 297 293 291 290 287 283 277 272 269 267 264 261 258 256 254 253 253 254
274 275 276 276 276 276 276 277 279 280 282 284 286 288 290 293 294 295 295 296 298 300 300 299 297 295 290 287 287 285 284 282 278 275 272 270 267 264 262 261 260 258 259
272 272 273 273 274 274 273 274 276 276 277 279 281 284 286 287 289 291 291 292 293 294 295 295 295 294 288 285 286 286 285 283 281 278 275 274 271 269 267 265 263 263 263
271 270 270 271 271 271 271 271 273 273 274 276 277 279 281 283 284 286 287 288 289 289 290 290 290 289 287 284 284 284 284 283 282 280 278 276 275 274 272 271 269 267 266
270 270 269 269 269 269 269 269 269 270 271 272 273 274 276 278 280 281 282 283 284 285 286 287 286 286 285 283 283 283 283 283 282 281 280 279 277 276 276 275 274 273 272
269 268 268 267 266 266 266 266 266 267 268 269 270 271 273 274 276 278 279 280 281 282 283 283 283 283 283 283 282 282 283 283 282 282 282 281 280 279 278 277 277 276 275
267 267 266 266 265 264 264 264 264 265 265 266 267 268 270 272 273 274 276 277 278 279 280 281 281 280 281 281 282 282 282 283 283 283 283 282 281 280 279 279 278 278 277
266 266 265 264 264 263 262 262 263 263 263 264 265 266 266 268 269 271 273 275 276 277 278 278 278 278 278 279 280 280 280 281 282 283 284 284 282 282 281 281 280 280 279
264 264 263 262 262 261 261 261 261 261 261 262 262 263 263 265 267 269 271 273 274 275 276 276 276 276 277 278 278 279 280 281 281 283 284 283 283 283 283 282 281 281 281
263 262 261 261 260 259 259 259 259 260 260 260 261 261 262 264 266 267 269 270 272 273 274 274 275 276 277 277 278 279 280 281 282 282 283 283 282 283 283 283 283 282 281
262 260 259 259 259 259 259 258 258 258 258 259 259 260 262 263 264 266 267 267 269 271 272 273 274 275 275 277 277 278 279 281 282 283 283 283 283 283 284 284 283 283 282
261 259 258 257 257 258 258 258 257 257 257 257 258 258 259 261 262 264 265 266 267 268 269 271 273 274 274 275 276 277 279 280 282 282 283 283 283 284 284 284 284 284 284
259 258 256 255 255 255 255 256 256 255 255 255 256 257 258 259 260 261 262 263 264 265 267 269 271 273 274 275 276 277 278 280 281 282 283 284 284 284 285 285 285 285 285
258 257 255 254 254 254 254 254 254 254 253 253 254 254 255 256 257 259 260 261 262 264 266 268 269 271 272 274 276 277 278 279 280 282 283 284 285 285 286 287 287 286 286
258 257 256 254 254 254 254 253 253 253 253 253 253 253 254 254 255 257 258 259 260 262 264 266 269 270 271 273 275 276 277 278 279 281 282 283 284 286 287 287 287 287 287
256 256 255 254 254 254 254 253 252 252 252 253 253 254 253 254 255 256 257 258 260 261 263 265 267 269 271 272 274 276 277 278 280 281 282 283 284 285 286 287 287 288 288
Height
5818 5816 5813 5810 5807 5804 5801 5798 5795 5792 5788 5785 5782 5778 5775 5772 5769 5767 5764 5763 5761 5761 5761 5761 5761 5762 5763 5764 5766 5768 5771 5774 5777 5780 5783 5786 5788 5791 5794 5797 5799 5802 5805
5816 5814 5811 5808 5805 5803 5800 5797 5794 5791 5788 5785 5781 5778 5775 5772 5769 5767 5765 5763 5761 5760 5760 5760 5760 5760 5761 5762 5764 5765 5768 5770 5773 5776 5778 5781 5784 5786 5789 5792 5794 5796 5799
5814 5812 5809 5807 5804 5801 5798 5796 5793 5790 5787 5784 5781 5778 5775 5772 5769 5767 5765 5763 5761 5760 5759 5759 5759 5759 5759 5760 5762 5763 5765 5767 5769 5772 5774 5777 5779 5782 5784 5786 5788 5791 5793
5811 5809 5807 5805 5802 5799 5797 5794 5792 5789 5786 5784 5781 5778 5775 5772 5770 5767 5765 5763 5761 5760 5759 5758 5758 5757 5758 5758 5760 5761 5763 5764 5766 5768 5770 5772 5774 5777 5779 5781 5783 5785 5787
5808 5806 5804 5802 5800 5798 5795 5793 5790 5788 5785 5783 5780 5778 5775 5772 5770 5767 5765 5763 5761 5760 5759 5758 5757 5756 5756 5757 5758 5759 5760 5761 5763 5765 5766 5768 5770 5772 5774 5775 5777 5779 5781
5804 5803 5801 5799 5797 5795 5793 5791 5788 5786 5784 5782 5779 5777 5774 5772 5769 5767 5765 5763 5761 5760 5758 5757 5756 5755 5755 5755 5755 5756 5757 5758 5759 5761 5762 5764 5765 5767 5768 5770 5772 5774 5775
5800 5798 5797 5796 5794 5792 5790 5788 5786 5784 5782 5780 5778 5775 5773 5771 5769 5766 5764 5763 5761 5759 5757 5756 5755 5754 5753 5753 5753 5753 5754 5755 5756 5757 5758 5759 5760 5762 5763 5764 5766 5767 5769
5795 5794 5792 5791 5790 5788 5786 5785 5783 5781 5779 5777 5775 5773 5771 5769 5767 5765 5763 5761 5760 5758 5756 5755 5753 5752 5751 5751 5750 5750 5751 5751 5752 5752 5753 5754 5755 5756 5757 5758 5759 5761 5762
5790 5789 5787 5786 5785 5783 5782 5780 5779 5777 5776 5774 5772 5770 5769 5767 5765 5763 5761 5760 5758 5756 5754 5753 5752 5750 5749 5748 5748 5747 5747 5747 5747 5748 5748 5749 5750 5751 5751 5753 5754 5755 5756
5783 5782 5781 5780 5779 5778 5777 5775 5774 5773 5771 5770 5768 5767 5765 5763 5762 5760 5759 5757 5755 5753 5752 5750 5749 5748 5747 5746 5745 5744 5744 5743 5743 5743 5743 5744 5745 5745 5746 5747 5748 5749 5749
5776 5775 5775 5774 5773 5772 5771 5770 5769 5767 5766 5765 5764 5762 5761 5759 5758 5756 5755 5753 5752 5750 5749 5747 5746 5745 5744 5743 5742 5741 5740 5739 5739 5739 5739 5739 5739 5739 5740 5741 5741 5742 5743
5768 5767 5767 5766 5765 5764 5764 5763 5762 5761 5760 5759 5758 5757 5756 5755 5753 5752 5750 5749 5748 5746 5745 5743 5742 5741 5740 5739 5738 5737 5736 5735 5735 5734 5734 5734 5734 5734 5734 5734 5734 5735 5735
5759 5759 5758 5757 5757 5756 5756 5755 5755 5754 5753 5753 5752 5751 5750 5749 5747 5746 5745 5744 5742 5741 5740 5739 5738 5736 5735 5734 5734 5733 5732 5731 5730 5730 5729 5729 5728 5728 5728 5728 5728 5728 5728
5749 5749 5749 5748 5748 5747 5747 5746 5746 5746 5745 5745 5744 5744 5743 5742 5741 5740 5739 5738 5737 5736 5735 5733 5732 5731 5730 5729 5729 5728 5727 5726 5725 5724 5724 5723 5723 5722 5721 5721 5721 5721 5721
5738 5738 5738 5738 5737 5737 5737 5737 5737 5737 5736 5736 5736 5735 5735 5735 5734 5733 5732 5731 5730 5729 5728 5727 5726 5725 5725 5724 5723 5722 5721 5720 5719 5718 5718 5717 5716 5716 5715 5714 5714 5713 5713
5726 5726 5726 5726 5726 5726 5726 5727 5726 5727 5727 5726 5726 5726 5726 5726 5725 5725 5724 5724 5723 5722 5721 5720 5720 5719 5718 5717 5716 5715 5714 5714 5713 5712 5711 5710 5709 5708 5707 5707 5706 5705 5704
5713 5714 5714 5714 5714 5714 5715 5715 5715 5716 5716 5716 5716 5716 5716 5716 5716 5716 5715 5715 5715 5714 5714 5713 5712 5711 5711 5710 5709 5708 5707 5706 5705 5704 5703 5702 5701 5700 5699 5698 5697 5696 5695
5699 5700 5700 5701 5701 5701 5702 5702 5703 5704 5704 5704 5705 5705 5706 5706 5706 5706 5706 5706 5705 5705 5705 5704 5704 5703 5702 5701 5701 5700 5699 5698 5697 5696 5695 5694 5693 5692 5690 5689 5688 5687 5685
5684 5684 5685 5686 5686 5687 5688 5689 5690 5691 5692 5692 5693 5694 5694 5695 5695 5695 5695 5696 5696 5695 5695 5695 5694 5694 5693 5692 5692 5691 5690 5689 5688 5687 5686 5685 5683 5682 5681 5680 5678 5677 5675
5667 5668 5668 5670 5671 5672 5673 5674 5676 5677 5678 5679 5680 5681 5682 5683 5683 5684 5684 5685 5685 5685 5685 5684 5684 5684 5683 5683 5682 5681 5681 5680 5679 5678 5676 5675 5674 5672 5671 5669 5668 5666 5665
5650 5650 5652 5653 5655 5656 5658 5659 5661 5662 5664 5665 5667 5668 5669 5670 5671 5672 5672 5673 5674 5674 5674 5674 5673 5673 5673 5672 5672 5671 5671 5670 5669 5667 5666 5665 5663 5662 5660 5659 5657 5655 5654
5632 5633 5635 5636 5638 5640 5642 5643 5645 5647 5649 5651 5652 5653 5655 5656 5658 5659 5660 5661 5661 5662 5662 5662 5662 5662 5662 5661 5661 5660 5660 5659 5658 5657 5655 5654 5652 5651 5649 5647 5645 5644 5642
5614 5615 5617 5619 5621 5623 5625 5627 5629 5631 5633 5635 5637 5639 5640 5642 5644 5645 5647 5648 5649 5649 5650 5650 5650 5650 5650 5650 5649 5649 5648 5648 5647 5645 5644 5643 5641 5639 5637 5636 5634 5632 5630
5596 5598 5600 5602 5604 5606 5609 5611 5613 5615 5617 5620 5622 5624 5626 5628 5630 5631 5633 5634 5635 5636 5637 5637 5638 5638 5638 5638 5637 5637 5636 5636 5635 5634 5632 5631 5629 5627 5626 5624 5622 5619 5617
5579 5581 5583 5585 5587 5589 5592 5594 5597 5599 5602 5604 5606 5608 5610 5613 5615 5617 5618 5620 5621 5623 5624 5624 5625 5625 5625 5625 5625 5625 5624 5623 5623 5621 5620 5619 5617 5616 5614 5612 5609 5607 5605
5562 5564 5566 5568 5570 5573 5575 5578 5581 5583 5586 5588 5591 5593 5595 5598 5600 5602 5604 5606 5608 5609 5610 5611 5612 5612 5613 5613 5613 5612 5612 5611 5610 5609 5608 5607 5605 5603 5601 5599 5597 5595 5592